Simultaneous Nadir Overpasses (SNOs) Predictions

Prediction of SNOs between GOES-16 and NOAA-19 Satellite Orbit:

Table of predicted SNOs for the next 14.0 days since TLE Epoch: 3/13/2021
Index Date Time (GOES-16) GOES-16 Lat,Lon NOAA-19 Lat,Lon Distance(km) Time Diff (sec)
1 03/13/2021 23:48:47 -0.01, -75.18 -0.49, -77.32 243.40 80
2 03/14/2021 23:34:23 -0.01, -75.19 0.17, -74.45 84.00 80
3 03/15/2021 23:22:40 -0.01, -75.19 0.83, -71.59 411.49 80
4 03/17/2021 11:57:50 0.01, -75.24 0.95, -79.37 471.33 80
5 03/18/2021 11:46:07 0.01, -75.24 0.31, -76.50 143.78 80
6 03/19/2021 11:31:44 0.01, -75.25 -0.40, -73.65 183.88 80
7 03/21/2021 23:55:24 -0.01, -75.24 -0.77, -78.61 384.00 80
8 03/22/2021 23:43:41 -0.01, -75.25 -0.10, -75.75 55.95 80
9 03/23/2021 23:29:17 -0.01, -75.26 0.56, -72.88 272.35 80
10 03/26/2021 11:52:46 0.02, -75.33 0.57, -77.80 281.91 80
